DW9931 Weather Reports


time (UTC)temp
F
wind
direction
speed
knots
gust
knots
rain 1hr
in
rain 24hr
in
rain mn
in
humidity
%
barometer
mb
20260505194547 75 354 7.0 12.2 0.00 0.00 0.00 43 1008.4
20260505193046 74 338 5.2 14.8 0.00 0.00 0.00 42 1008.3
20260505191551 74 1 5.2 12.2 0.00 0.00 0.00 43 1008.4
20260505190038 74 19 7.0 10.4 0.00 0.00 0.00 42 1008.5
20260505184536 73 358 7.8 11.3 0.00 0.00 0.00 41 1008.6
20260505183032 72 330 4.3 9.6 0.00 0.00 0.00 43 1008.6
20260505181531 71 358 11.3 13.9 0.00 0.00 0.00 46 1008.7
20260505180041 71 319 5.2 7.8 0.00 0.00 0.00 48 1008.6
20260505174532 69 350 1.7 10.4 0.00 0.00 0.00 53 1008.6
20260505173021 68 359 0.0 9.6 0.00 0.00 0.00 54 1008.7
20260505171520 68 338 3.5 7.8 0.00 0.00 0.00 53 1008.5
20260505170025 68 326 0.0 6.1 0.00 0.00 0.00 59 1008.5
20260505164518 67 330 6.1 10.4 0.00 0.00 0.00 60 1008.4
20260505163014 67 285 2.6 11.3 0.00 0.00 0.00 61 1008.3
20260505161513 66 318 2.6 7.8 0.00 0.00 0.00 62 1008.3
20260505153007 64 312 2.6 9.6 0.00 0.00 0.00 65 1008.2
20260505151505 64 304 3.5 8.7 0.00 0.00 0.00 66 1008.1
20260505124534 0 0.0 0.0 0.00 0.00 0.00 1006.4
20260505123050 0 0.0 0.0 0.00 0.00 0.00 1006.2
20260505121525 0 0.0 0.0 0.00 0.00 0.00 1006.1
20260505120027 0 0.0 0.0 0.00 0.00 0.00 1006.0
20260505114516 0 0.0 0.0 0.00 0.00 0.00 1005.9
20260505113012 0 0.0 0.0 0.00 0.00 0.00 1005.8
20260505111508 0 0.0 0.0 0.00 0.00 0.00 1005.7
20260505101550 0 0.0 0.0 0.00 0.00 0.00 1005.1
20260505100048 0 0.0 0.0 0.00 0.00 0.00 1005.0
20260505094545 0 0.0 0.0 0.00 0.00 0.00 1004.9
20260505093040 63 210 0.0 2.6 0.00 0.00 0.00 66 1004.9
20260505091538 63 225 0.9 4.3 0.00 0.00 0.00 65 1004.9
20260505090042 63 201 0.0 5.2 0.00 0.00 0.00 64 1004.7
20260505084536 63 180 0.0 6.1 0.00 0.00 0.00 64 1004.6
20260505083044 63 204 1.7 3.5 0.00 0.00 0.00 64 1004.7
20260505081534 64 205 0.0 1.7 0.00 0.00 0.00 62 1004.7
20260505080036 64 194 0.0 2.6 0.00 0.00 0.00 63 1004.4
20260505074526 64 219 0.9 3.5 0.00 0.00 0.00 63 1004.3
20260505073023 64 205 0.0 2.6 0.00 0.00 0.00 61 1004.2
20260505071521 64 215 0.0 0.9 0.00 0.00 0.00 59 1004.1
20260505070018 65 201 0.0 0.0 0.00 0.00 0.00 56 1004.1
20260505064516 65 208 0.9 3.5 0.00 0.00 0.00 55 1003.8
20260505063016 65 188 0.0 0.0 0.00 0.00 0.00 53 1003.8
20260505061528 66 198 0.0 0.0 0.00 0.00 0.00 50 1003.6
20260505060015 67 233 0.0 2.6 0.00 0.00 0.00 49 1003.6
20260505054514 66 200 0.0 0.0 0.00 0.00 0.00 49 1003.3
20260505053016 66 174 0.0 0.9 0.00 0.00 0.00 50 1003.3
20260505051514 67 164 0.0 2.6 0.00 0.00 0.00 49 1003.0
20260505041515 68 155 0.0 1.7 0.00 0.00 0.00 44 1002.7
20260505040012 71 181 0.0 0.0 0.00 0.00 0.00 35 1002.5
20260505034608 72 148 0.0 0.0 0.00 0.00 0.00 36 1002.2
20260505033008 74 155 0.0 0.0 0.00 0.00 0.00 34 1002.0
20260505031508 77 56 0.0 0.0 0.00 0.00 0.00 30 1002.0
20260505030007 79 56 0.0 0.0 0.00 0.00 0.00 30 1001.9
20260505024517 83 56 0.0 0.0 0.00 0.00 0.00 28 1001.9
20260505023005 83 57 0.0 0.0 0.00 0.00 0.00 26 1001.9
20260505021506 83 56 0.0 0.0 0.00 0.00 0.00 25 1001.9
20260505020004 84 51 0.0 3.5 0.00 0.00 0.00 24 1002.1
20260505014501 84 50 0.9 7.8 0.00 0.00 0.00 23 1002.2
20260505013102 84 18 3.5 9.6 0.00 0.00 0.00 23 1002.3
20260505011600 84 56 7.8 13.9 0.00 0.00 0.00 24 1002.3
20260505010058 84 54 4.3 10.4 0.00 0.00 0.00 23 1002.5
20260505004557 84 9 3.5 7.0 0.00 0.00 0.00 22 1002.5
20260505003058 85 87 3.5 10.4 0.00 0.00 0.00 23 1002.6
20260505001556 85 54 0.0 9.6 0.00 0.00 0.00 22 1002.7
20260504234610 84 65 5.2 10.4 0.00 0.00 0.00 23 1002.6
20260504233050 84 4 2.6 9.6 0.00 0.00 0.00 25 1002.7
20260504231559 84 72 0.0 8.7 0.00 0.00 0.00 22 1002.9
20260504230046 84 32 3.5 7.8 0.00 0.00 0.00 22 1003.1
20260504224542 83 93 0.0 8.7 0.00 0.00 0.00 23 1003.2
20260504223040 83 110 0.0 9.6 0.00 0.00 0.00 22 1003.4
20260504221540 83 331 3.5 12.2 0.00 0.00 0.00 25 1003.5
20260504220036 82 353 6.1 10.4 0.00 0.00 0.00 24 1003.8
20260504214531 83 338 5.2 16.5 0.00 0.00 0.00 26 1003.9
20260504213028 81 328 8.7 13.0 0.00 0.00 0.00 31 1004.0
20260504211528 81 74 1.7 8.7 0.00 0.00 0.00 30 1004.3
20260504210024 81 359 3.5 11.3 0.00 0.00 0.00 32 1004.5
20260504204518 80 332 1.7 10.4 0.00 0.00 0.00 31 1004.7
20260504203022 80 338 4.3 8.7 0.00 0.00 0.00 33 1004.9
20260504201511 78 333 2.6 9.6 0.00 0.00 0.00 37 1004.9
20260504200009 78 236 0.0 5.2 0.00 0.00 0.00 38 1005.0